| time (UTC) | temp C | wind direction | speed KPH | gust KPH | rain 1hr cm | rain 24hr cm | rain mn cm | humidity % | barometer mb |
| 20260506084600 | 8 | 317 | 1.6 | 6.4 | 0.00 | 0.00 | 0.00 | 95 | 1018.6 |
| 20260506084044 | 8 | 317 | 3.2 | 6.4 | 0.00 | 0.00 | 0.00 | 95 | 1018.6 |
| 20260506083545 | 8 | 315 | 3.2 | 8.0 | 0.00 | 0.00 | 0.00 | 95 | 1018.6 |
| 20260506083059 | 8 | 315 | 4.8 | 8.0 | 0.00 | 0.00 | 0.00 | 95 | 1018.7 |
| 20260506082542 | 8 | 313 | 4.8 | 8.0 | 0.00 | 0.00 | 0.00 | 95 | 1018.7 |
| 20260506082043 | 8 | 312 | 4.8 | 8.0 | 0.00 | 0.00 | 0.00 | 95 | 1018.8 |
| 20260506081558 | 8 | 312 | 3.2 | 8.0 | 0.00 | 0.00 | 0.00 | 95 | 1018.7 |
| 20260506081043 | 8 | 309 | 4.8 | 8.0 | 0.00 | 0.00 | 0.00 | 94 | 1018.7 |
| 20260506080543 | 8 | 307 | 4.8 | 8.0 | 0.00 | 0.00 | 0.00 | 94 | 1018.8 |
| 20260506073053 | 8 | 309 | 4.8 | 12.9 | 0.00 | 0.00 | 0.00 | 94 | 1018.4 |
| 20260506072543 | 8 | 308 | 4.8 | 9.7 | 0.00 | 0.00 | 0.00 | 95 | 1018.3 |
| 20260506072043 | 8 | 299 | 4.8 | 8.0 | 0.00 | 0.00 | 0.00 | 95 | 1018.3 |
| 20260506071551 | 8 | 313 | 4.8 | 8.0 | 0.00 | 0.00 | 0.00 | 95 | 1018.3 |
| 20260506071042 | 8 | 313 | 4.8 | 8.0 | 0.00 | 0.00 | 0.00 | 95 | 1018.3 |
| 20260506070543 | 8 | 315 | 4.8 | 8.0 | 0.00 | 0.00 | 0.00 | 95 | 1018.3 |
| 20260506062042 | 8 | 313 | 4.8 | 8.0 | 0.00 | 0.00 | 0.00 | 95 | 1018.2 |
| 20260506061555 | 8 | 313 | 4.8 | 8.0 | 0.00 | 0.00 | 0.00 | 95 | 1018.1 |
| 20260506061046 | 8 | 312 | 4.8 | 8.0 | 0.00 | 0.00 | 0.00 | 95 | 1018.0 |
| 20260506060543 | 9 | 315 | 4.8 | 11.3 | 0.00 | 0.00 | 0.00 | 95 | 1018.1 |
| 20260506051044 | 9 | 309 | 4.8 | 8.0 | 0.00 | 0.00 | 0.00 | 95 | 1017.8 |
| 20260506050543 | 9 | 309 | 4.8 | 8.0 | 0.00 | 0.00 | 0.00 | 94 | 1017.8 |
| 20260506045047 | 9 | 317 | 3.2 | 6.4 | 0.00 | 0.00 | 0.00 | 94 | 1017.7 |
| 20260506044628 | 9 | 317 | 3.2 | 8.0 | 0.00 | 0.00 | 0.00 | 94 | 1017.6 |
| 20260506044046 | 9 | 318 | 4.8 | 8.0 | 0.00 | 0.00 | 0.00 | 94 | 1017.6 |
| 20260506043545 | 9 | 319 | 3.2 | 6.4 | 0.00 | 0.00 | 0.00 | 94 | 1017.4 |
| 20260506043053 | 9 | 320 | 4.8 | 6.4 | 0.00 | 0.00 | 0.00 | 94 | 1017.5 |
| 20260506042544 | 9 | 320 | 3.2 | 6.4 | 0.00 | 0.00 | 0.00 | 94 | 1017.5 |
| 20260506042045 | 9 | 316 | 3.2 | 6.4 | 0.00 | 0.00 | 0.00 | 94 | 1017.4 |
| 20260506041551 | 9 | 318 | 3.2 | 6.4 | 0.00 | 0.00 | 0.00 | 94 | 1017.3 |
| 20260506041044 | 9 | 318 | 3.2 | 6.4 | 0.00 | 0.00 | 0.00 | 94 | 1017.2 |
| 20260506040543 | 9 | 318 | 3.2 | 6.4 | 0.00 | 0.00 | 0.00 | 94 | 1017.2 |
| 20260506040048 | 9 | 317 | 4.8 | 6.4 | 0.00 | 0.00 | 0.00 | 93 | 1017.2 |
| 20260506035547 | 9 | 318 | 3.2 | 6.4 | 0.00 | 0.00 | 0.00 | 93 | 1017.2 |
| 20260506035044 | 9 | 318 | 3.2 | 6.4 | 0.00 | 0.00 | 0.00 | 93 | 1017.1 |
| 20260506034549 | 9 | 310 | 3.2 | 6.4 | 0.00 | 0.00 | 0.00 | 93 | 1017.0 |
| 20260506034043 | 9 | 310 | 3.2 | 6.4 | 0.00 | 0.00 | 0.00 | 93 | 1016.9 |
| 20260506033545 | 9 | 310 | 3.2 | 6.4 | 0.00 | 0.00 | 0.00 | 93 | 1017.0 |
| 20260506033049 | 9 | 310 | 0.0 | 8.0 | 0.00 | 0.00 | 0.00 | 93 | 1016.9 |
| 20260506032544 | 9 | 310 | 3.2 | 8.0 | 0.00 | 0.00 | 0.00 | 94 | 1016.9 |
| 20260506032044 | 9 | 310 | 4.8 | 8.0 | 0.00 | 0.00 | 0.00 | 94 | 1016.6 |
| 20260506031552 | 9 | 320 | 4.8 | 6.4 | 0.00 | 0.00 | 0.00 | 94 | 1016.6 |
| 20260506031045 | 9 | 325 | 3.2 | 6.4 | 0.00 | 0.00 | 0.00 | 94 | 1016.5 |
| 20260506030544 | 9 | 325 | 3.2 | 6.4 | 0.00 | 0.00 | 0.00 | 94 | 1016.6 |
| 20260506030057 | 9 | 315 | 3.2 | 8.0 | 0.00 | 0.00 | 0.00 | 94 | 1016.6 |
| 20260506025544 | 9 | 315 | 3.2 | 11.3 | 0.00 | 0.00 | 0.00 | 94 | 1016.5 |
| 20260506025044 | 9 | 315 | 4.8 | 11.3 | 0.00 | 0.00 | 0.00 | 94 | 1016.5 |
| 20260506024550 | 9 | 312 | 3.2 | 6.4 | 0.00 | 0.00 | 0.00 | 94 | 1016.3 |
| 20260506024045 | 9 | 318 | 4.8 | 6.4 | 0.00 | 0.00 | 0.00 | 94 | 1016.3 |
| 20260506023545 | 9 | 310 | 3.2 | 8.0 | 0.00 | 0.00 | 0.00 | 94 | 1016.2 |
| 20260506023057 | 9 | 310 | 4.8 | 8.0 | 0.00 | 0.00 | 0.00 | 94 | 1016.3 |
| 20260506022544 | 9 | 309 | 4.8 | 8.0 | 0.00 | 0.00 | 0.00 | 94 | 1016.3 |
| 20260506022044 | 9 | 306 | 4.8 | 8.0 | 0.00 | 0.00 | 0.00 | 94 | 1016.3 |
| 20260506021555 | 9 | 311 | 4.8 | 8.0 | 0.00 | 0.00 | 0.00 | 94 | 1016.3 |
| 20260506021044 | 9 | 311 | 3.2 | 8.0 | 0.00 | 0.00 | 0.00 | 94 | 1016.4 |
| 20260506020544 | 9 | 309 | 4.8 | 8.0 | 0.00 | 0.00 | 0.00 | 94 | 1016.3 |
| 20260506020052 | 9 | 304 | 4.8 | 8.0 | 0.00 | 0.00 | 0.00 | 93 | 1016.4 |
| 20260506015543 | 9 | 299 | 4.8 | 8.0 | 0.00 | 0.00 | 0.00 | 93 | 1016.4 |
| 20260506015043 | 9 | 313 | 3.2 | 8.0 | 0.00 | 0.00 | 0.00 | 93 | 1016.4 |
| 20260506014549 | 9 | 310 | 4.8 | 8.0 | 0.00 | 0.00 | 0.00 | 93 | 1016.4 |
| 20260506014042 | 9 | 309 | 4.8 | 11.3 | 0.00 | 0.00 | 0.00 | 93 | 1016.3 |
| 20260506013543 | 10 | 312 | 3.2 | 11.3 | 0.00 | 0.00 | 0.00 | 93 | 1016.3 |
| 20260506013046 | 10 | 320 | 3.2 | 8.0 | 0.00 | 0.00 | 0.00 | 92 | 1016.3 |
| 20260506012543 | 10 | 317 | 1.6 | 6.4 | 0.00 | 0.00 | 0.00 | 92 | 1016.3 |
| 20260506012043 | 10 | 317 | 3.2 | 6.4 | 0.00 | 0.00 | 0.00 | 92 | 1016.2 |
| 20260506011553 | 10 | 323 | 3.2 | 4.8 | 0.00 | 0.00 | 0.00 | 92 | 1016.2 |
| 20260506011044 | 10 | 323 | 1.6 | 6.4 | 0.00 | 0.00 | 0.00 | 92 | 1016.2 |
| 20260506010540 | 10 | 323 | 1.6 | 6.4 | 0.00 | 0.00 | 0.00 | 91 | 1016.2 |
| 20260506010110 | 10 | 324 | 1.6 | 6.4 | 0.00 | 0.00 | 0.00 | 91 | 1016.2 |
| 20260506005543 | 10 | 308 | 1.6 | 6.4 | 0.00 | 0.00 | 0.00 | 91 | 1016.2 |
| 20260506005042 | 10 | 308 | 1.6 | 6.4 | 0.00 | 0.00 | 0.00 | 91 | 1016.2 |
| 20260506004555 | 10 | 333 | 1.6 | 6.4 | 0.00 | 0.00 | 0.00 | 90 | 1016.2 |
| 20260506004039 | 10 | 333 | 3.2 | 8.0 | 0.00 | 0.00 | 0.00 | 90 | 1016.2 |
| 20260506003542 | 10 | 315 | 4.8 | 8.0 | 0.00 | 0.00 | 0.00 | 90 | 1016.1 |
| 20260506003053 | 10 | 310 | 3.2 | 6.4 | 0.00 | 0.00 | 0.00 | 90 | 1016.0 |
| 20260506002543 | 10 | 311 | 3.2 | 8.0 | 0.00 | 0.00 | 0.00 | 90 | 1016.0 |
| 20260506002043 | 10 | 303 | 3.2 | 8.0 | 0.00 | 0.00 | 0.00 | 90 | 1016.0 |
| 20260506001549 | 10 | 304 | 4.8 | 11.3 | 0.00 | 0.00 | 0.00 | 89 | 1015.9 |
| 20260506001043 | 10 | 311 | 4.8 | 11.3 | 0.00 | 0.00 | 0.00 | 89 | 1015.9 |
| 20260506000544 | 10 | 307 | 6.4 | 12.9 | 0.00 | 0.00 | 0.00 | 89 | 1015.9 |
| 20260506000050 | 10 | 319 | 4.8 | 12.9 | 0.00 | 0.00 | 0.00 | 88 | 1015.8 |
| 20260505235544 | 10 | 312 | 6.4 | 12.9 | 0.00 | 0.00 | 0.00 | 88 | 1015.8 |
| 20260505235045 | 11 | 309 | 3.2 | 12.9 | 0.00 | 0.00 | 0.00 | 88 | 1015.8 |
| 20260505234605 | 11 | 307 | 3.2 | 12.9 | 0.00 | 0.00 | 0.00 | 87 | 1015.8 |
| 20260505234042 | 11 | 315 | 3.2 | 8.0 | 0.00 | 0.00 | 0.00 | 87 | 1015.8 |
| 20260505233542 | 11 | 325 | 3.2 | 8.0 | 0.00 | 0.00 | 0.00 | 87 | 1015.8 |
| 20260505233048 | 11 | 314 | 3.2 | 6.4 | 0.00 | 0.00 | 0.00 | 87 | 1015.8 |
| 20260505232543 | 11 | 317 | 3.2 | 8.0 | 0.00 | 0.00 | 0.00 | 87 | 1015.8 |
| 20260505232046 | 10 | 317 | 3.2 | 8.0 | 0.00 | 0.00 | 0.00 | 87 | 1015.9 |
| 20260505231548 | 10 | 301 | 3.2 | 8.0 | 0.00 | 0.00 | 0.00 | 88 | 1015.9 |
| 20260505231042 | 10 | 277 | 1.6 | 8.0 | 0.00 | 0.00 | 0.00 | 88 | 1015.9 |
| 20260505230543 | 10 | 320 | 3.2 | 6.4 | 0.00 | 0.00 | 0.00 | 88 | 1016.0 |
| 20260505230054 | 10 | 321 | 3.2 | 6.4 | 0.00 | 0.00 | 0.00 | 88 | 1015.9 |
| 20260505225543 | 10 | 309 | 1.6 | 6.4 | 0.00 | 0.00 | 0.00 | 89 | 1015.9 |
| 20260505225043 | 10 | 309 | 3.2 | 6.4 | 0.00 | 0.00 | 0.00 | 89 | 1016.0 |
| 20260505224600 | 10 | 317 | 3.2 | 8.0 | 0.00 | 0.00 | 0.00 | 89 | 1016.0 |
| 20260505224047 | 10 | 313 | 3.2 | 8.0 | 0.00 | 0.00 | 0.00 | 89 | 1016.1 |
| 20260505223542 | 10 | 315 | 3.2 | 8.0 | 0.00 | 0.00 | 0.00 | 89 | 1016.0 |
| 20260505223054 | 10 | 303 | 4.8 | 8.0 | 0.00 | 0.00 | 0.00 | 89 | 1016.2 |
| 20260505222545 | 10 | 317 | 3.2 | 8.0 | 0.00 | 0.00 | 0.00 | 89 | 1016.2 |
| 20260505222043 | 10 | 326 | 1.6 | 8.0 | 0.00 | 0.00 | 0.00 | 89 | 1016.2 |
| 20260505221551 | 10 | 326 | 4.8 | 8.0 | 0.00 | 0.00 | 0.00 | 89 | 1016.3 |
| 20260505221043 | 10 | 318 | 4.8 | 8.0 | 0.00 | 0.00 | 0.00 | 89 | 1016.2 |
| 20260505220546 | 10 | 309 | 4.8 | 12.9 | 0.00 | 0.00 | 0.00 | 89 | 1016.1 |
| 20260505220051 | 10 | 303 | 3.2 | 12.9 | 0.00 | 0.00 | 0.00 | 89 | 1016.1 |
| 20260505215543 | 10 | 309 | 4.8 | 12.9 | 0.00 | 0.00 | 0.00 | 89 | 1016.2 |
| 20260505215047 | 10 | 308 | 3.2 | 12.9 | 0.00 | 0.00 | 0.00 | 89 | 1016.1 |
| 20260505214613 | 10 | 318 | 4.8 | 12.9 | 0.00 | 0.00 | 0.00 | 89 | 1016.2 |
| 20260505214043 | 10 | 311 | 6.4 | 11.3 | 0.00 | 0.00 | 0.00 | 89 | 1016.3 |
| 20260505213542 | 10 | 300 | 3.2 | 8.0 | 0.00 | 0.00 | 0.00 | 90 | 1016.3 |
| 20260505213102 | 10 | 313 | 3.2 | 8.0 | 0.00 | 0.00 | 0.00 | 91 | 1016.2 |
| 20260505212542 | 10 | 303 | 3.2 | 11.3 | 0.00 | 0.00 | 0.00 | 91 | 1016.3 |
| 20260505212042 | 10 | 315 | 3.2 | 11.3 | 0.00 | 0.00 | 0.00 | 92 | 1016.2 |
| 20260505211551 | 10 | 299 | 3.2 | 9.7 | 0.00 | 0.00 | 0.00 | 92 | 1016.2 |
| 20260505211044 | 10 | 315 | 3.2 | 11.3 | 0.00 | 0.00 | 0.00 | 93 | 1016.1 |
| 20260505210543 | 10 | 306 | 4.8 | 11.3 | 0.00 | 0.00 | 0.00 | 94 | 1016.0 |
| 20260505210052 | 10 | 312 | 3.2 | 11.3 | 0.00 | 0.00 | 0.00 | 95 | 1016.0 |
| 20260505205542 | 10 | 313 | 3.2 | 11.3 | 0.00 | 0.00 | 0.00 | 95 | 1016.1 |
| 20260505205045 | 9 | 297 | 4.8 | 9.7 | 0.00 | 0.00 | 0.00 | 95 | 1016.2 |
| 20260505204558 | 9 | 310 | 4.8 | 11.3 | 0.00 | 0.00 | 0.00 | 95 | 1016.2 |
| 20260505204044 | 9 | 302 | 4.8 | 11.3 | 0.00 | 0.00 | 0.00 | 95 | 1016.2 |
| 20260505203543 | 9 | 304 | 4.8 | 8.0 | 0.00 | 0.00 | 0.00 | 96 | 1016.2 |
| 20260505203054 | 9 | 304 | 3.2 | 6.4 | 0.00 | 0.00 | 0.00 | 95 | 1016.2 |
| 20260505202543 | 9 | 294 | 3.2 | 6.4 | 0.00 | 0.00 | 0.00 | 95 | 1016.1 |
| 20260505202043 | 9 | 316 | 3.2 | 11.3 | 0.00 | 0.00 | 0.00 | 96 | 1016.2 |
| 20260505201555 | 9 | 316 | 3.2 | 11.3 | 0.00 | 0.00 | 0.00 | 95 | 1016.3 |
| 20260505201043 | 9 | 317 | 6.4 | 11.3 | 0.00 | 0.00 | 0.00 | 95 | 1016.3 |
| 20260505200543 | 9 | 342 | 0.0 | 9.7 | 0.00 | 0.00 | 0.00 | 95 | 1016.3 |
| 20260505200100 | 9 | 327 | 3.2 | 9.7 | 0.00 | 0.00 | 0.00 | 95 | 1016.3 |
| 20260505195542 | 9 | 302 | 3.2 | 12.9 | 0.00 | 0.00 | 0.00 | 95 | 1016.4 |
| 20260505195042 | 9 | 306 | 4.8 | 12.9 | 0.00 | 0.00 | 0.00 | 95 | 1016.3 |
| 20260505194602 | 9 | 313 | 3.2 | 11.3 | 0.00 | 0.00 | 0.00 | 95 | 1016.3 |
| 20260505194042 | 9 | 0 | 0.0 | 11.3 | 0.00 | 0.00 | 0.00 | 95 | 1016.5 |
| 20260505193543 | 9 | 312 | 4.8 | 12.9 | 0.00 | 0.00 | 0.00 | 95 | 1016.5 |
| 20260505193051 | 9 | 326 | 4.8 | 12.9 | 0.00 | 0.00 | 0.00 | 95 | 1016.4 |
| 20260505192543 | 9 | 309 | 4.8 | 9.7 | 0.00 | 0.00 | 0.00 | 95 | 1016.3 |
| 20260505192043 | 9 | 319 | 3.2 | 8.0 | 0.00 | 0.00 | 0.00 | 95 | 1016.3 |
| 20260505191550 | 9 | 313 | 1.6 | 6.4 | 0.00 | 0.00 | 0.00 | 95 | 1016.3 |
| 20260505191045 | 8 | 0 | 1.6 | 6.4 | 0.00 | 0.00 | 0.00 | 95 | 1016.2 |
| 20260505190543 | 8 | 311 | 1.6 | 11.3 | 0.00 | 0.00 | 0.00 | 95 | 1016.2 |
| 20260505190054 | 8 | 321 | 3.2 | 11.3 | 0.00 | 0.00 | 0.00 | 95 | 1016.2 |
| 20260505185543 | 8 | 315 | 4.8 | 11.3 | 0.00 | 0.00 | 0.00 | 95 | 1016.3 |
| 20260505185045 | 8 | 320 | 3.2 | 6.4 | 0.00 | 0.00 | 0.00 | 95 | 1016.2 |
| 20260505184548 | 8 | 319 | 1.6 | 6.4 | 0.00 | 0.00 | 0.00 | 95 | 1016.1 |
| 20260505184043 | 8 | 0 | 3.2 | 6.4 | 0.00 | 0.00 | 0.00 | 94 | 1016.1 |
| 20260505183546 | 8 | 0 | 0.0 | 8.0 | 0.00 | 0.00 | 0.00 | 94 | 1016.0 |
| 20260505183046 | 8 | 0 | 3.2 | 8.0 | 0.00 | 0.00 | 0.00 | 94 | 1016.2 |
| 20260505182545 | 8 | 324 | 1.6 | 8.0 | 0.00 | 0.00 | 0.00 | 94 | 1016.2 |
| 20260505182043 | 8 | 321 | 3.2 | 8.0 | 0.00 | 0.00 | 0.00 | 94 | 1016.0 |
| 20260505181546 | 8 | 325 | 3.2 | 11.3 | 0.00 | 0.00 | 0.00 | 94 | 1016.0 |
| 20260505181045 | 8 | 313 | 3.2 | 11.3 | 0.00 | 0.00 | 0.00 | 94 | 1016.0 |
| 20260505180548 | 8 | 312 | 4.8 | 11.3 | 0.00 | 0.00 | 0.00 | 94 | 1015.9 |
| 20260505180103 | 8 | 288 | 6.4 | 11.3 | 0.00 | 0.00 | 0.00 | 93 | 1015.9 |
| 20260505175543 | 8 | 315 | 3.2 | 12.9 | 0.00 | 0.00 | 0.00 | 93 | 1015.9 |
| 20260505175044 | 8 | 319 | 4.8 | 12.9 | 0.00 | 0.00 | 0.00 | 93 | 1015.9 |
| 20260505174601 | 8 | 315 | 4.8 | 11.3 | 0.00 | 0.00 | 0.00 | 93 | 1015.8 |
| 20260505174044 | 8 | 311 | 6.4 | 11.3 | 0.00 | 0.00 | 0.00 | 93 | 1015.8 |
| 20260505173544 | 8 | 317 | 3.2 | 8.0 | 0.00 | 0.00 | 0.00 | 93 | 1015.6 |
| 20260505173052 | 8 | 315 | 3.2 | 6.4 | 0.00 | 0.00 | 0.00 | 93 | 1015.6 |
| 20260505172544 | 8 | 311 | 3.2 | 11.3 | 0.00 | 0.00 | 0.00 | 93 | 1015.7 |
| 20260505172043 | 8 | 311 | 3.2 | 12.9 | 0.00 | 0.00 | 0.00 | 93 | 1015.7 |
| 20260505171549 | 8 | 312 | 4.8 | 12.9 | 0.00 | 0.00 | 0.00 | 93 | 1015.5 |
| 20260505171044 | 8 | 294 | 6.4 | 12.9 | 0.00 | 0.00 | 0.00 | 93 | 1015.6 |
| 20260505170547 | 8 | 320 | 4.8 | 12.9 | 0.00 | 0.00 | 0.00 | 93 | 1015.6 |
| 20260505170051 | 8 | 290 | 3.2 | 14.5 | 0.00 | 0.00 | 0.00 | 93 | 1015.5 |
| 20260505165543 | 8 | 304 | 4.8 | 14.5 | 0.00 | 0.00 | 0.00 | 93 | 1015.4 |
| 20260505165046 | 8 | 323 | 4.8 | 14.5 | 0.00 | 0.00 | 0.00 | 93 | 1015.4 |
| 20260505164550 | 8 | 296 | 4.8 | 14.5 | 0.00 | 0.00 | 0.00 | 93 | 1015.3 |
| 20260505164045 | 8 | 302 | 4.8 | 14.5 | 0.00 | 0.00 | 0.00 | 93 | 1015.3 |
| 20260505163542 | 8 | 318 | 6.4 | 14.5 | 0.00 | 0.00 | 0.00 | 93 | 1015.4 |
| 20260505163052 | 8 | 293 | 4.8 | 8.0 | 0.00 | 0.00 | 0.00 | 93 | 1015.3 |
| 20260505162543 | 8 | 297 | 3.2 | 9.7 | 0.00 | 0.00 | 0.00 | 93 | 1015.3 |
| 20260505162044 | 8 | 302 | 4.8 | 12.9 | 0.00 | 0.00 | 0.00 | 93 | 1015.3 |
| 20260505161554 | 8 | 319 | 6.4 | 12.9 | 0.00 | 0.00 | 0.00 | 93 | 1015.3 |
| 20260505161045 | 8 | 312 | 4.8 | 11.3 | 0.00 | 0.00 | 0.00 | 93 | 1015.3 |
| 20260505160544 | 8 | 302 | 4.8 | 9.7 | 0.00 | 0.00 | 0.00 | 93 | 1015.3 |
| 20260505153050 | 8 | 325 | 4.8 | 11.3 | 0.00 | 0.00 | 0.00 | 93 | 1015.0 |
| 20260505152542 | 7 | 324 | 4.8 | 8.0 | 0.00 | 0.00 | 0.00 | 93 | 1015.0 |
| 20260505152047 | 7 | 316 | 4.8 | 8.0 | 0.00 | 0.00 | 0.00 | 94 | 1015.0 |
| 20260505151552 | 7 | 315 | 4.8 | 8.0 | 0.00 | 0.00 | 0.00 | 94 | 1014.9 |
| 20260505151043 | 7 | 323 | 3.2 | 8.0 | 0.00 | 0.00 | 0.00 | 93 | 1014.9 |
| 20260505150545 | 7 | 319 | 3.2 | 6.4 | 0.00 | 0.00 | 0.00 | 93 | 1014.7 |
| 20260505140544 | 7 | 311 | 8.0 | 12.9 | 0.00 | 0.00 | 0.00 | 94 | 1014.3 |
| 20260505140105 | 7 | 298 | 4.8 | 11.3 | 0.00 | 0.00 | 0.00 | 94 | 1014.3 |
| 20260505124611 | 7 | 311 | 8.0 | 12.9 | 0.00 | 0.00 | 0.00 | 93 | 1014.2 |
| 20260505124047 | 7 | 315 | 8.0 | 12.9 | 0.00 | 0.00 | 0.00 | 92 | 1014.1 |
| 20260505123543 | 7 | 310 | 8.0 | 12.9 | 0.00 | 0.00 | 0.00 | 92 | 1014.2 |
| 20260505123106 | 7 | 306 | 4.8 | 8.0 | 0.00 | 0.00 | 0.00 | 92 | 1014.1 |
| 20260505122543 | 7 | 316 | 3.2 | 6.4 | 0.00 | 0.00 | 0.00 | 92 | 1014.1 |
| 20260505122043 | 7 | 315 | 3.2 | 6.4 | 0.00 | 0.00 | 0.00 | 92 | 1014.1 |
| 20260505121549 | 7 | 315 | 1.6 | 6.4 | 0.00 | 0.00 | 0.00 | 92 | 1014.1 |
| 20260505121043 | 7 | 315 | 3.2 | 8.0 | 0.00 | 0.00 | 0.00 | 92 | 1014.2 |
| 20260505120543 | 7 | 311 | 3.2 | 8.0 | 0.00 | 0.00 | 0.00 | 92 | 1014.2 |
| 20260505120055 | 7 | 312 | 3.2 | 8.0 | 0.00 | 0.00 | 0.00 | 92 | 1014.2 |
| 20260505115543 | 7 | 317 | 4.8 | 8.0 | 0.00 | 0.00 | 0.00 | 92 | 1014.2 |
| 20260505115043 | 7 | 306 | 4.8 | 9.7 | 0.00 | 0.00 | 0.00 | 92 | 1014.3 |
| 20260505114549 | 7 | 321 | 4.8 | 14.5 | 0.00 | 0.00 | 0.00 | 91 | 1014.3 |
| 20260505114046 | 7 | 315 | 6.4 | 14.5 | 0.00 | 0.00 | 0.00 | 92 | 1014.1 |
| 20260505113545 | 7 | 304 | 9.7 | 14.5 | 0.00 | 0.00 | 0.00 | 92 | 1014.2 |
| 20260505113101 | 7 | 314 | 9.7 | 14.5 | 0.00 | 0.00 | 0.00 | 91 | 1014.3 |
| 20260505112544 | 7 | 315 | 9.7 | 16.1 | 0.00 | 0.00 | 0.00 | 91 | 1014.3 |
| 20260505112045 | 7 | 324 | 9.7 | 16.1 | 0.00 | 0.00 | 0.00 | 91 | 1014.2 |
| 20260505111553 | 7 | 321 | 8.0 | 12.9 | 0.00 | 0.00 | 0.00 | 91 | 1014.2 |
| 20260505111041 | 7 | 317 | 8.0 | 12.9 | 0.00 | 0.00 | 0.00 | 91 | 1014.1 |
| 20260505110544 | 7 | 316 | 8.0 | 12.9 | 0.00 | 0.00 | 0.00 | 91 | 1014.1 |
| 20260505102043 | 7 | 316 | 8.0 | 14.5 | 0.00 | 0.00 | 0.00 | 95 | 1014.2 |
| 20260505101549 | 7 | 311 | 8.0 | 14.5 | 0.00 | 0.00 | 0.00 | 95 | 1014.3 |
| 20260505101044 | 7 | 312 | 8.0 | 12.9 | 0.00 | 0.00 | 0.00 | 95 | 1014.3 |
| 20260505100545 | 7 | 308 | 8.0 | 11.3 | 0.00 | 0.00 | 0.00 | 95 | 1014.4 |
| 20260505100210 | 7 | 314 | 6.4 | 9.7 | 0.00 | 0.00 | 0.00 | 95 | 1014.4 |
| 20260505095543 | 7 | 311 | 6.4 | 8.0 | 0.00 | 0.00 | 0.00 | 95 | 1014.4 |
| 20260505095043 | 7 | 312 | 4.8 | 8.0 | 0.00 | 0.00 | 0.00 | 95 | 1014.4 |
| 20260505094553 | 7 | 315 | 4.8 | 11.3 | 0.00 | 0.00 | 0.00 | 95 | 1014.4 |
| 20260505094044 | 7 | 311 | 6.4 | 11.3 | 0.00 | 0.00 | 0.00 | 94 | 1014.4 |
| 20260505093543 | 7 | 314 | 6.4 | 9.7 | 0.00 | 0.00 | 0.00 | 94 | 1014.3 |
| 20260505093054 | 7 | 316 | 6.4 | 11.3 | 0.00 | 0.00 | 0.00 | 94 | 1014.4 |
| 20260505092545 | 7 | 306 | 6.4 | 11.3 | 0.00 | 0.00 | 0.00 | 95 | 1014.3 |
| 20260505092044 | 7 | 304 | 4.8 | 11.3 | 0.00 | 0.00 | 0.00 | 94 | 1014.4 |
| 20260505091606 | 7 | 307 | 4.8 | 8.0 | 0.00 | 0.00 | 0.00 | 94 | 1014.5 |
| 20260505091045 | 7 | 318 | 6.4 | 8.0 | 0.00 | 0.00 | 0.00 | 94 | 1014.6 |
| 20260505090544 | 7 | 317 | 6.4 | 12.9 | 0.00 | 0.00 | 0.00 | 94 | 1014.7 |
| 20260505090057 | 7 | 321 | 6.4 | 12.9 | 0.00 | 0.00 | 0.00 | 94 | 1014.7 |
| 20260505085545 | 7 | 312 | 3.2 | 6.4 | 0.00 | 0.00 | 0.00 | 94 | 1014.7 |
| 20260505085044 | 7 | 304 | 3.2 | 8.0 | 0.00 | 0.00 | 0.00 | 94 | 1014.7 |